Date String (YYYY-MM-DD hh:mm:ss) UTC,Instrument flags,absolute air pressure of the measurement (hPa),sample flow rate (lpm),inlet stack bypass flow (lpm),air temperature of the measurement (°C),ambient temperature measured by the external sensor (°C),aerosol sample conditioner tube jacket temperature (°C),OPC LED temperature (°C),internal box temperature (°C),relative humidity of the measurement (%),span deviation,mass concentration of particles derived from Lorenz-Mie calculation of OPC scattering (μg/m³),mass concentration of particles derived from Lorenz-Mie calculation of OPC scattering (μg/m³),mass concentration of particles derived from Lorenz-Mie calculation of OPC scattering (μg/m³)
DateTimeUTC,F1_M11,P_M11,Q1_M11,Q2_M11,T1_M11,T2_M11,T3_M11,T4_M11,T5_M11,U1_M11,ZSPAN_M11,X2_M11,X0_M11,X1_M11
2023-07-19 21:00:00,SystemResetWarning,0836.3,5.00,000.00,028.8,026.6,000.0,037.2,030.4,29.3,0000.0,0004.62,0009.81,0004.04
2023-07-19 21:01:00,SystemResetWarning,0836.3,5.00,000.00,028.9,027.0,000.0,037.2,030.5,28.9,0000.0,0004.61,0009.95,0004.04
2023-07-19 21:02:00,SystemResetWarning,0836.4,4.99,000.00,028.9,027.4,000.0,037.2,030.6,27.9,0000.0,0004.63,0009.76,0004.04
2023-07-19 21:03:00,SystemResetWarning,0836.4,5.00,000.00,028.9,027.6,000.0,037.2,030.7,27.4,0000.0,0004.63,0009.77,0004.03
2023-07-19 21:04:00,SystemResetWarning,0836.4,5.00,000.00,029.0,027.8,000.0,037.3,030.8,27.2,0000.0,0004.63,0009.48,0004.03
2023-07-19 21:05:00,SystemResetWarning,0836.4,4.99,000.00,029.0,026.8,000.0,037.2,030.7,28.1,0000.0,0004.63,0009.37,0004.03
2023-07-19 21:06:00,SystemResetWarning,0836.4,5.00,000.00,029.0,025.3,000.0,037.1,030.5,28.1,0000.0,0004.63,0009.43,0004.03
2023-07-19 21:07:00,SystemResetWarning,0836.4,5.01,000.00,028.9,025.0,000.0,037.0,030.3,28.5,0000.0,0004.61,0009.22,0004.02
2023-07-19 21:08:00,SystemResetWarning,0836.4,5.01,000.00,028.8,025.4,000.0,037.1,030.2,29.0,0000.0,0004.60,0009.16,0004.03
2023-07-19 21:09:00,SystemResetWarning,0836.4,5.00,000.00,028.8,025.8,000.0,037.1,030.2,29.0,0000.0,0004.60,0009.02,0004.03
2023-07-19 21:10:00,SystemResetWarning,0836.5,4.99,000.00,028.8,026.3,000.0,037.2,030.3,29.2,0000.0,0004.60,0009.33,0004.04
2023-07-19 21:11:00,SystemResetWarning,0836.5,5.01,000.00,028.8,026.7,000.0,037.2,030.4,29.0,0000.0,0004.58,0009.32,0004.05
2023-07-19 21:12:00,SystemResetWarning,0836.5,5.00,000.00,028.9,027.1,000.0,037.2,030.5,28.2,0000.0,0004.58,0009.69,0004.05
2023-07-19 21:13:00,SystemResetWarning,0836.6,5.00,000.00,028.9,027.4,000.0,037.2,030.6,28.4,0000.0,0004.55,0010.00,0004.06
2023-07-19 21:14:00,SystemResetWarning,0836.6,5.00,000.00,029.0,027.7,000.0,037.3,030.7,29.2,0000.0,0004.56,0009.90,0004.06
2023-07-19 21:15:00,SystemResetWarning,0836.6,5.00,000.00,029.0,027.6,000.0,037.3,030.8,29.0,0000.0,0004.56,0009.74,0004.05
2023-07-19 21:16:00,SystemResetWarning,0836.7,4.98,000.00,029.0,026.2,000.0,037.2,030.6,28.3,0000.0,0004.53,0009.64,0004.05
2023-07-19 21:17:00,SystemResetWarning,0836.8,5.02,000.00,028.9,025.0,000.0,037.1,030.3,28.6,0000.0,0004.51,0009.49,0004.05
2023-07-19 21:18:00,SystemResetWarning,0837.0,5.01,000.00,028.8,025.0,000.0,037.1,030.1,28.8,0000.0,0004.52,0009.53,0004.08
2023-07-19 21:19:00,SystemResetWarning,0837.0,4.99,000.00,028.8,025.4,000.0,037.1,030.1,28.7,0000.0,0004.55,0009.59,0004.09
2023-07-19 21:20:00,SystemResetWarning,0837.1,5.00,000.00,028.8,025.9,000.0,037.1,030.2,28.7,0000.0,0004.56,0009.59,0004.11
2023-07-19 21:21:00,SystemResetWarning,0837.2,5.00,000.00,028.8,026.3,000.0,037.2,030.3,27.9,0000.0,0004.58,0009.38,0004.11
2023-07-19 21:22:00,SystemResetWarning,0837.2,5.01,000.00,028.8,026.7,000.0,037.2,030.4,27.9,0000.0,0004.62,0009.38,0004.12
2023-07-19 21:23:00,SystemResetWarning,0837.3,4.99,000.00,028.9,027.1,000.0,037.2,030.5,29.4,0000.0,0004.65,0009.17,0004.13
2023-07-19 21:24:00,SystemResetWarning,0837.2,5.00,000.00,028.9,027.4,000.0,037.2,030.6,31.8,0000.0,0004.72,0009.01,0004.15
2023-07-19 21:25:00,SystemResetWarning,0837.3,5.00,000.00,029.0,027.7,000.0,037.3,030.7,30.8,0000.0,0004.73,0009.82,0004.16
2023-07-19 21:26:00,SystemResetWarning,0837.2,4.99,000.00,029.0,027.2,000.0,037.2,030.7,30.9,0000.0,0004.70,0010.02,0004.17
2023-07-19 21:27:00,SystemResetWarning,0837.2,4.99,000.00,028.9,025.5,000.0,037.1,030.5,31.5,0000.0,0004.69,0010.13,0004.18
2023-07-19 21:28:00,SystemResetWarning,0836.9,5.02,000.00,028.9,024.7,000.0,037.0,030.2,32.2,0000.0,0004.68,0010.38,0004.17
2023-07-19 21:29:00,SystemResetWarning,0836.8,5.01,000.00,028.8,024.8,000.0,037.0,030.0,32.2,0000.0,0004.65,0010.50,0004.16
2023-07-19 21:30:00,SystemResetWarning,0836.6,4.98,000.00,028.7,025.2,000.0,037.1,030.0,34.2,0000.0,0004.65,0010.58,0004.15
2023-07-19 21:31:00,SystemResetWarning,0836.5,5.02,000.00,028.8,025.7,000.0,037.1,030.2,35.2,0000.0,0004.66,0010.62,0004.13
2023-07-19 21:32:00,SystemResetWarning,0836.4,5.00,000.00,028.9,026.2,000.0,037.1,030.4,34.0,0000.0,0004.67,0010.74,0004.12
2023-07-19 21:33:00,SystemResetWarning,0836.3,4.98,000.00,029.1,026.6,000.0,037.2,030.5,35.7,0000.0,0004.67,0011.13,0004.12
2023-07-19 21:34:00,SystemResetWarning,0836.2,5.03,000.00,029.3,027.0,000.0,037.2,030.6,33.0,0000.0,0004.68,0011.35,0004.11
2023-07-19 21:35:00,SystemResetWarning,0836.2,4.98,000.00,029.5,027.3,000.0,037.3,030.8,32.5,0000.0,0004.68,0011.32,0004.11
2023-07-19 21:36:00,SystemResetWarning,0836.1,5.00,000.00,029.6,027.6,000.0,037.3,030.8,37.0,0000.0,0004.68,0010.55,0004.10
2023-07-19 21:37:00,SystemResetWarning,0836.1,5.03,000.00,029.9,027.4,000.0,037.4,031.0,34.6,0000.0,0004.70,0010.24,0004.10
2023-07-19 21:38:00,SystemResetWarning,0836.1,4.98,000.00,030.1,026.0,000.0,037.3,030.9,31.5,0000.0,0004.73,0010.18,0004.12
2023-07-19 21:39:00,SystemResetWarning,0836.1,5.00,000.00,030.2,025.5,000.0,037.3,030.7,32.9,0000.0,0004.73,0010.38,0004.14
2023-07-19 21:40:00,SystemResetWarning,0836.2,5.02,000.00,030.2,025.7,000.0,037.5,030.6,31.9,0000.0,0004.83,0010.45,0004.17
2023-07-19 21:41:00,SystemResetWarning,0836.2,5.00,000.00,030.2,026.1,000.0,037.6,030.6,31.7,0000.0,0004.83,0010.62,0004.16
2023-07-19 21:42:00,SystemResetWarning,0836.2,4.99,000.00,030.3,026.5,000.0,037.7,030.7,33.7,0000.0,0004.80,0010.58,0004.14
2023-07-19 21:43:00,SystemResetWarning,0836.2,4.99,000.00,030.3,026.9,000.0,037.8,030.8,34.5,0000.0,0004.78,0010.92,0004.14
2023-07-19 21:44:00,SystemResetWarning,0836.1,5.02,000.00,030.4,027.2,000.0,037.9,030.9,36.2,0000.0,0004.75,0011.69,0004.11
2023-07-19 21:45:00,SystemResetWarning,0836.2,5.00,000.00,030.6,027.5,000.0,038.0,031.1,31.9,0000.0,0004.71,0011.11,0004.09
2023-07-19 21:46:00,SystemResetWarning,0836.2,4.99,000.00,030.8,027.4,000.0,038.1,031.2,32.6,0000.0,0004.61,0010.59,0004.05
2023-07-19 21:47:00,SystemResetWarning,0836.1,5.00,000.00,030.9,026.0,000.0,038.0,031.0,31.3,0000.0,0004.52,0010.26,0003.98
2023-07-19 21:48:00,SystemResetWarning,0836.1,4.99,000.00,030.8,024.9,000.0,038.0,030.8,28.8,0000.0,0004.45,0010.49,0003.93
2023-07-19 21:49:00,SystemResetWarning,0836.1,5.00,000.00,030.8,024.9,000.0,038.0,030.6,31.7,0000.0,0004.38,0010.49,0003.87
2023-07-19 21:50:00,SystemResetWarning,0836.1,5.01,000.00,030.6,025.2,000.0,038.1,030.5,31.1,0000.0,0004.39,0010.41,0003.82
2023-07-19 21:51:00,SystemResetWarning,0836.1,5.00,000.00,030.6,025.7,000.0,038.2,030.6,30.6,0000.0,0004.34,0010.45,0003.77
2023-07-19 21:52:00,SystemResetWarning,0836.2,5.00,000.00,030.5,026.2,000.0,038.3,030.7,30.3,0000.0,0004.29,0010.46,0003.75
2023-07-19 21:53:00,SystemResetWarning,0836.2,5.00,000.00,030.5,026.6,000.0,038.3,030.8,31.7,0000.0,0004.28,0010.47,0003.73
2023-07-19 21:54:00,SystemResetWarning,0836.3,5.00,000.00,030.5,027.0,000.0,038.4,030.9,31.1,0000.0,0004.28,0010.23,0003.71
2023-07-19 21:55:00,SystemResetWarning,0836.3,4.97,000.00,030.5,027.3,000.0,038.4,031.0,34.7,0000.0,0004.28,0008.81,0003.70
2023-07-19 21:56:00,SystemResetWarning,0836.2,5.03,000.00,030.7,027.6,000.0,038.4,031.1,36.7,0000.0,0004.30,0008.88,0003.70
2023-07-19 21:57:00,SystemResetWarning,0836.3,4.97,000.00,030.9,027.8,000.0,038.5,031.3,35.4,0000.0,0004.32,0009.30,0003.70
2023-07-19 21:58:00,SystemResetWarning,0836.2,5.01,000.00,031.2,027.3,000.0,038.5,031.4,37.4,0000.0,0004.38,0009.69,0003.72
2023-07-19 21:59:00,SystemResetWarning,0836.2,5.01,000.00,031.6,026.1,000.0,038.4,031.4,36.6,0000.0,0004.41,0009.45,0003.73
